Location: New Plymouth
(39.0670°S, 174.0830°E)
Time: 21:56:37
(UTC+13:00)

Cosmos 1818 - Pass Details

Date: 24 January 2019
Orbit: 771 x 802 km, 65.0° (Epoch: 15 February)

Event Time Altitude Azimuth Distance (km) Brightness Sun altitude
Exits shadow 23:47:55 26° 304° (WNW) 1,516 4.9 -26.5°
Maximum altitude 23:50:51 56° 235° (SW) 935 4.1 -26.8°
Drops below altitude 10° 23:56:09 10° 157° (SSE) 2,349 6.5 -27.2°
Sets 23:58:37 0° 152° (SSE) 3,281 7.3 -27.4°
